Location: St. Louis
(38.6270°N, 90.1994°W)
Time: 00:02:03
(UTC-05:00)

NOAA 18 - Visible Passes

Search period start: 10 August 2022 00:00
Search period end: 20 August 2022 00:00
Orbit: 839 x 860 km, 98.9° (Epoch: 09 August)

Date Brightness Start Highest point End Pass type
(mag) Time Alt. Az. Time Alt. Az. Time Alt. Az.
10 Aug 6.8 21:26:22 16° E 21:28:14 19° ENE 21:31:55 10° NNE visible
10 Aug 5.5 23:08:21 59° WSW 23:08:22 59° WSW 23:13:51 10° NNW visible
11 Aug 7.0 21:14:15 12° E 21:16:20 15° ENE 21:19:15 10° NNE visible
11 Aug 5.2 22:56:14 76° WSW 22:56:18 77° WSW 23:01:52 10° NNW visible
12 Aug 7.2 21:02:51 10° ENE 21:04:29 11° ENE 21:06:06 10° NE visible
12 Aug 5.0 22:44:07 83° ESE 22:44:16 84° ENE 22:49:49 10° NNW visible
13 Aug 7.7 00:26:06 11° W 00:26:06 11° W 00:27:08 10° WNW visible
13 Aug 5.2 22:32:00 65° E 22:32:14 66° ENE 22:37:43 10° N visible
14 Aug 7.5 00:13:59 15° W 00:13:59 15° W 00:16:25 10° WNW visible
14 Aug 5.4 22:19:53 50° E 22:20:14 51° ENE 22:25:33 10° N visible
15 Aug 7.2 00:01:52 19° W 00:01:52 19° W 00:05:05 10° NW visible
15 Aug 5.8 22:07:45 39° E 22:08:14 40° ENE 22:13:20 10° N visible
15 Aug 6.9 23:49:45 25° W 23:49:45 25° W 23:53:30 10° NW visible
16 Aug 6.1 21:55:39 31° E 21:56:16 32° ENE 22:01:04 10° N visible
16 Aug 6.6 23:37:38 31° W 23:37:38 31° W 23:41:45 10° NW visible
17 Aug 6.4 21:43:31 24° ENE 21:44:19 25° ENE 21:48:43 10° NNE visible
17 Aug 6.2 23:25:31 40° WNW 23:25:31 40° WNW 23:29:55 10° NNW visible
18 Aug 6.7 21:31:24 19° ENE 21:32:24 20° ENE 21:36:16 10° NNE visible
18 Aug 5.9 23:13:24 50° WNW 23:13:24 50° WNW 23:18:01 10° NNW visible
19 Aug 6.9 21:19:18 15° ENE 21:20:29 16° ENE 21:23:39 10° NNE visible
19 Aug 5.6 23:01:17 62° NW 23:01:17 62° NW 23:06:02 10° NNW visible
